Location: S�les
(46.6376°N, 6.9736°E)
Time: 19:25:09
(UTC+00:00)

Daily predictions for brighter satellites

Satellite Brightness Start Highest point End
(mag) Time Altitude Azimuth Time Altitude Azimuth Time Altitude Azimuth
SL-16 R/B 4.0 16:13:15 10° WSW 16:17:55 25° NW 16:22:34 10° N
NOAA 12 4.5 16:15:10 10° SE 16:20:11 44° ENE 16:25:13 10° N
Cosmos 2237 Rocket 3.2 16:16:00 10° SSE 16:20:36 27° ESE 16:25:14 10° NE
ISS -2.1 16:20:08 10° SSW 16:22:50 23° SE 16:25:33 10° E
Cosmos 1869 3.3 16:19:55 10° S 16:23:57 84° E 16:28:03 10° N
USA 267 3.6 16:21:02 10° E 16:27:12 48° NNE 16:33:24 10° NW
Cosmos 2322 4.0 16:22:50 10° SW 16:28:28 72° WNW 16:34:11 10° NNE
Cosmos 540 Rocket 3.6 16:23:50 10° SSW 16:28:58 85° WNW 16:34:08 10° NNE
COSMOS 2455 4.3 16:23:40 10° NW 16:29:21 44° WSW 16:35:00 10° S
CZ-4B R/B 3.0 16:27:42 10° ENE 16:29:33 15° E 16:31:23 10° SE
Cosmos 2369 Rocket 4.1 16:30:58 10° NNE 16:32:21 11° NNE 16:33:44 10° NE
Okean-O 4.3 16:32:11 10° E 16:34:13 13° ENE 16:36:15 10° NNE
NOSS 2-1 (E) 4.3 16:29:17 10° NW 16:34:21 70° NE 16:41:32 10° SE
AQUARIUS 4.4 16:30:08 10° SE 16:34:26 48° ENE 16:38:47 10° N
Meteor 2-2 Rocket 4.4 16:29:19 10° S 16:35:14 67° E 16:41:05 10° NNE
Cosmos 841 Rocket 3.7 16:32:02 10° SSW 16:37:16 76° WNW 16:42:31 10° NNE
COSMO-SKYMED 1 4.1 16:34:51 10° NE 16:37:41 17° E 16:40:29 10° SE
Cosmos 1980 4.2 16:33:07 10° S 16:38:20 39° ESE 16:43:36 10° NE
Cosmos 1743 Rocket 3.6 16:33:58 10° N 16:38:27 67° E 16:42:52 10° SSE
CORIOLIS 4.3 16:33:31 10° SSE 16:38:46 56° ENE 16:44:05 10° N
Envisat 3.1 16:34:29 10° SSE 16:39:33 82° WSW 16:44:41 10° NNW
H-2A R/B 2.8 16:38:06 10° S 16:42:28 77° WSW 16:46:44 10° NNW
H-2A R/B 3.9 16:40:23 10° S 16:44:03 47° W 16:47:48 10° NNW
Cosmos 1408 Rocket 4.4 16:40:36 10° NNW 16:44:54 56° W 16:49:10 10° S
H-2A R/B 3.6 16:43:33 10° E 16:46:17 14° ENE 16:48:59 10° NNE
Okean O Rocket 1.5 16:42:34 10° SSE 16:46:52 66° ENE 16:51:13 10° N
Nadezhda 1 Rocket 4.1 16:40:55 10° S 16:47:08 64° E 16:53:27 10° NNE
Sich 1 3.6 16:46:14 10° N 16:50:17 34° ENE 16:54:16 10° SE
Cosmos 1842 Rocket 3.8 16:46:43 10° SSW 16:51:01 70° W 16:55:21 10° N
Cosmos 2292 4.4 16:50:34 10° S 16:53:30 51° E 16:56:56 10° NNE
Aureole 2 Rocket 4.0 16:51:36 10° NW 16:54:05 31° WSW 16:56:39 10° S
Cosmos 405 Rocket 2.7 16:50:48 10° N 16:54:41 87° ENE 16:58:39 10° S
Cosmos 2154 Rocket 4.0 16:51:34 10° N 16:57:56 80° E 17:04:17 10° SSE
Cosmos 1805 Rocket 3.6 16:54:20 10° N 16:58:45 55° ENE 17:03:06 10° SSE
YAOGAN 6 3.5 16:56:15 10° S 16:59:51 54° W 17:03:26 10° NNW
Cosmos 1814 Rocket 4.5 16:54:52 10° SSW 17:00:10 64° WNW 17:05:27 10° NNE
Cosmos 1666 Rocket 4.2 17:00:45 10° N 17:04:42 31° ENE 17:08:39 10° SE
Cosmos 2341 Rocket 4.1 16:59:10 10° N 17:05:16 51° ENE 17:11:23 10° SSE
SMAP 3.3 17:00:59 10° S 17:05:38 75° WSW 17:10:19 10° NNW
Cosmos 1943 Rocket 3.4 17:01:51 10° N 17:06:03 21° NE 17:07:55 18° ENE
Helios 1A Rocket 4.0 17:03:28 10° ESE 17:06:36 22° ENE 17:09:45 10° NNE
Cosmos 2322 Rocket 4.5 17:03:35 10° WNW 17:07:00 16° NW 17:10:26 10° N
USA 281 3.5 17:01:04 10° ESE 17:07:12 44° NE 17:13:21 10° NNW
SL-16 R/B 3.3 17:03:22 10° SSE 17:07:44 23° ESE 17:09:55 19° ENE
Cosmos 1151 Rocket 4.2 17:05:43 10° SE 17:09:02 22° E 17:09:51 21° ENE
ARGOS 4.4 17:15:45 19° NE 17:15:45 19° NE 17:19:17 10° NNE
NOSS 0 Rocket 4.0 17:11:56 10° SSW 17:18:11 89° NW 17:24:28 10° NNE
Feng Yun 1-1 Rocket 4.3 17:13:14 10° SSE 17:18:59 68° ENE 17:24:40 10° N
Cosmos 1606 2.7 17:15:32 10° S 17:19:21 57° E 17:23:04 11° NNE
Cosmos 389 Rocket 2.5 17:16:06 10° S 17:19:26 49° E 17:21:16 23° NNE
CREW DRAGON DEMO-1 DEB 3.4 17:17:06 10° WNW 17:19:57 38° NNE 17:20:29 34° NE
Cosmos 2285 Rocket 4.4 17:14:31 10° N 17:20:32 40° ENE 17:26:28 10° SE
CZ-2C R/B 3.5 17:16:06 10° SE 17:20:43 35° ENE 17:25:10 10° N
Cosmos 2333 Rocket 3.5 17:16:16 10° WSW 17:21:32 37° NW 17:26:48 10° NNE
H-2A R/B 3.2 17:21:03 10° N 17:24:58 41° WNW 17:28:55 10° SW
Cosmos 1867 4.1 17:20:13 10° S 17:25:12 38° ESE 17:27:32 26° ENE
SKYMED 2 3.7 17:22:23 13° NNE 17:26:06 49° E 17:30:19 10° S
Meteor 1-20 Rocket 4.4 17:20:48 10° N 17:26:29 50° ENE 17:32:09 10° SSE
COSMOS 2428 3.8 17:21:16 10° SW 17:26:43 43° NW 17:32:11 10° NNE
Cosmos 1818 4.0 17:26:57 10° NW 17:32:23 66° WSW 17:37:45 10° SSE
SL-8 Rocket 3.9 17:27:04 10° N 17:33:15 62° ENE 17:39:26 10° SSE
Lacrosse 5 rocket 3.2 17:32:09 10° SSE 17:33:15 14° SE 17:33:15 14° SE
Cosmos 2278 Rocket 3.1 17:29:57 10° NW 17:35:27 51° WSW 17:40:54 10° S
Cosmos 1633 Rocket 3.1 17:32:08 10° N 17:36:27 54° ENE 17:40:43 10° SSE
USA 215 3.2 17:32:16 22° NE 17:36:50 88° SE 17:43:24 10° SW
Cosmos 2181 Rocket 4.1 17:31:00 10° S 17:37:17 59° E 17:43:34 10° NNE
CZ-4 R/B 1.6 17:37:52 42° E 17:38:14 43° ENE 17:42:02 10° N
EO 1 Delta rocket 4.4 17:33:29 10° NNE 17:38:34 52° E 17:44:48 10° S
SAR-Lupe-4 3.4 17:40:59 40° NNE 17:42:07 70° ESE 17:45:41 10° S
Meteor 1-25 Rocket 4.1 17:37:14 10° N 17:42:48 64° ENE 17:48:24 10° SSE
Cosmos 1959 Rocket 4.5 17:36:32 10° N 17:42:51 61° ENE 17:49:08 10° SSE
CZ-2D R/B 3.0 17:42:03 10° SSE 17:45:50 77° ENE 17:49:40 10° N
BREEZE-M DEB (TANK) 3.1 17:47:15 10° WSW 17:48:48 34° SW 17:48:48 34° SW
Cosmos 1125 Rocket 4.4 17:45:29 10° NNW 17:50:30 49° WSW 17:55:29 10° S
Abrixas rocket 3.8 17:48:53 10° W 17:51:10 23° SSW 17:51:40 22° SSW
IRS-1C Rocket 4.1 17:46:01 10° SSE 17:51:18 85° WSW 17:56:38 10° NNW
Cosmos 1356 4.0 17:48:40 10° NNW 17:52:03 57° W 17:55:24 10° S
Cosmos 1689 Rocket 3.9 17:53:50 22° S 17:53:50 22° S 17:55:01 10° S
Cosmos 1939 Rocket 3.2 17:48:55 10° S 17:52:44 62° W 17:56:36 10° NNW
CSL-04 Debris 4.4 17:51:53 34° ESE 17:53:44 46° ENE 17:58:58 10° N
ERS-2 3.0 17:50:53 14° N 17:53:48 49° WNW 17:57:20 10° SSW
Cosmos 44 3.6 17:49:09 10° NNW 17:54:18 53° NE 17:55:24 45° E
DEBRIS 4.0 17:38:52 10° W 17:54:35 72° N 17:56:23 42° ENE
Cosmos 2219 Rocket 4.1 17:52:19 10° W 17:56:54 25° NW 18:01:29 10° N
SAR-Lupe-1 4.1 17:58:34 54° N 17:59:17 76° WNW 18:02:52 10° SSW
ISS -3.4 17:56:02 10° WSW 17:59:04 64° WNW 17:59:04 64° WNW
CZ-4B R/B 3.2 18:00:04 16° NNW 18:01:51 28° WNW 18:04:31 10° SW
Cosmos 2237 Rocket 2.9 17:58:51 10° SW 18:04:20 52° WNW 18:08:37 17° NNE
YAOGAN 1 2.4 18:03:51 64° SE 18:04:23 73° ENE 18:08:43 10° N
USA 267 3.3 18:05:49 24° SE 18:10:00 79° SW 18:16:33 10° NW
Okean-O 2.6 18:05:37 10° SSE 18:10:03 83° WSW 18:14:31 10° NNW
COSMO-SKYMED 1 3.3 18:10:59 17° N 18:14:10 53° WNW 18:18:23 10° SSW
SL-24 R/B 4.3 18:13:04 33° N 18:14:42 61° WNW 18:18:28 10° SSW
USA 81 4.4 18:11:18 10° N 18:16:33 64° W 18:21:45 10° S
Cosmos 2218 Rocket 4.0 18:10:49 10° NNW 18:16:58 77° W 18:23:06 10° S
Cosmos 2369 Rocket 3.0 18:12:40 10° NNW 18:16:39 35° NNE 18:16:39 35° NNE
CSL-04 Rocket 3.5 18:18:45 67° ENE 18:18:45 67° ENE 18:24:04 10° N
H-2A R/B 1.9 18:23:35 52° SSE 18:24:57 84° ENE 18:30:12 10° NNW
Cosmos 2366 rocket 4.3 18:23:16 10° NNW 18:29:25 65° W 18:35:29 10° S
Meteor 1-14 Rocket 4.2 18:29:48 10° NNW 18:35:45 88° WSW 18:38:09 39° S
Cosmos 773 Rocket 4.2 18:32:15 10° SSW 18:36:42 65° SSW 18:36:42 65° SSW
Cosmos 2297 4.3 18:35:57 10° NW 18:41:31 56° WSW 18:44:22 28° S
Helios 1A Rocket 4.4 18:39:39 22° SSW 18:41:34 36° W 18:45:19 10° NNW
Cosmos 1151 Rocket 4.4 18:42:25 10° SW 18:46:23 36° WNW 18:46:45 35° WNW
Cosmos 1943 Rocket 2.4 18:44:53 10° NNW 18:49:30 62° NW 18:49:30 62° NW
SL-16 R/B 2.6 18:45:49 10° SW 18:51:24 59° WNW 18:51:51 58° NW
USA 281 4.2 18:45:31 10° S 18:51:42 43° WSW 18:57:55 10° NW
MOS 1 Rocket 4.2 18:53:31 45° NNW 18:54:46 55° WNW 19:00:03 10° SSW
ARGOS 4.1 18:57:16 40° NNW 18:57:16 40° NNW 19:00:42 10° NNW
CZ-4 R/B 4.1 19:13:54 17° W 19:13:54 17° W 19:16:06 10° NW
USA 215 4.0 19:19:37 45° NNW 19:19:37 45° NNW 19:25:39 10° W
